Voltar ao catálogo

FENGYUN 1C DEB

AtivoSSO
NORAD 31082·DEBRIS·🇨🇳 China

Lançado May 10, 1999 de Taiyuan Satellite Launch Center

Loading…

Próximas Passagens (próximas 24 horas)

TLE

EnvelhecendoSource: Space-Track

Época: Sep 4, 2026, 06:13 UTC

1 31082U 99025BGC 26247.25935584  .00000617  00000-0  33985-3 0  9996
2 31082  98.6758 251.7211 0068781 161.6520 198.7158 14.13920565    15

Acompanhe FENGYUN 1C DEB em tempo real com AllMySat

Download on the App Store